Location: Enikep?du
(16.5133°N, 80.7066°E)
Time: 14:58:40
(UTC+00:00)

Skynet4D Del rocket - Pass Details

Date: 20 January 2020
Orbit: 763 x 1291 km, 26.9° (Epoch: 22 February)

Event Time Altitude Azimuth Distance (km) Brightness Sun altitude
Exits shadow 00:13:21 - 234° (SW) 3,310 6.4 -13.5°
Reaches altitude 10° 00:15:44 10° 230° (SW) 2,427 5.8 -13.0°
Maximum altitude 00:21:15 52° 154° (SSE) 958 4.3 -11.7°
Drops below altitude 10° 00:26:26 10° 78° (ENE) 2,284 7.0 -10.5°
Sets 00:28:55 0° 74° (ENE) 3,209 7.7 -10.0°
